Location: Pitton
(51.0667°N, 1.7000°W)
Time: 23:47:44
(UTC+00:00)

Cosmos 2056 Rocket - Pass Details

Date: 17 September 2019
Orbit: 742 x 800 km, 74.0° (Epoch: 14 October)

Event Time Altitude Azimuth Distance (km) Brightness Sun altitude
Rises 20:24:26 0° 195° (SSW) 3,296 6.6 -19.8°
Reaches altitude 10° 20:26:50 10° 194° (SSW) 2,371 5.9 -20.1°
Maximum altitude 20:32:13 72° 111° (ESE) 842 3.4 -20.8°
Drops below altitude 10° 20:37:37 10° 28° (NNE) 2,376 6.1 -21.5°
Sets 20:40:01 0° 26° (NNE) 3,304 6.9 -21.9°
